FW5640 Weather Reports


time (UTC)temp
C
wind
direction
speed
KPH
gust
KPH
rain 1hr
cm
rain 24hr
cm
rain mn
cm
humidity
%
barometer
mb
20260510082905 22 89 1.6 1.6 0.00 0.00 0.00 97 1013.5
20260510082404 22 93 1.6 1.6 0.00 0.00 0.00 97 1013.8
20260510081902 22 56 0.0 1.6 0.00 0.00 0.00 97 1014.1
20260510081358 22 56 1.6 0.0 0.00 0.00 0.00 97 1014.3
20260510080855 22 23 1.6 1.6 0.00 0.00 0.00 97 1014.6
20260510080348 22 317 3.2 4.8 0.00 0.00 0.00 97 1014.6
20260510075846 22 276 4.8 4.8 0.00 0.00 0.00 97 1014.6
20260510075344 22 210 1.6 1.6 0.00 0.00 0.00 97 1014.4
20260510074840 22 142 1.6 1.6 0.00 0.00 0.00 97 1013.7
20260510074337 22 121 8.0 9.7 0.00 0.00 0.00 97 1013.0
20260510073833 21 91 4.8 4.8 0.00 0.00 0.00 97 1013.1
20260510073329 21 86 0.0 1.6 0.00 0.00 0.00 97 1013.6
20260510072825 21 75 0.0 0.0 0.00 0.00 0.00 97 1014.0
20260510072323 21 79 0.0 0.0 0.00 0.00 0.00 97 1014.1
20260510071819 21 92 0.0 0.0 0.00 0.00 0.00 96 1014.3
20260510071315 21 98 0.0 0.0 0.00 0.00 0.00 96 1014.2
20260510070814 21 88 0.0 0.0 0.00 0.00 0.00 96 1014.1
20260510070310 21 89 0.0 0.0 0.00 0.00 0.00 96 1013.9
20260510065810 21 89 0.0 0.0 0.00 0.00 0.00 96 1013.7
20260510065307 21 150 0.0 0.0 0.00 0.00 0.00 96 1013.9
20260510064804 21 150 0.0 0.0 0.00 0.00 0.00 96 1013.6
20260510064302 21 151 0.0 0.0 0.00 0.00 0.00 96 1014.0
20260510063757 21 151 0.0 0.0 0.00 0.00 0.00 96 1014.1
20260510063254 21 151 0.0 0.0 0.00 0.00 0.00 96 1014.2
20260510062751 21 151 0.0 0.0 0.00 0.00 0.00 96 1014.2
20260510062247 21 151 0.0 0.0 0.00 0.00 0.00 96 1014.2
20260510061742 21 151 0.0 0.0 0.00 0.00 0.00 96 1014.2
20260510061240 21 151 0.0 0.0 0.00 0.00 0.00 96 1014.3
20260510060735 21 151 0.0 0.0 0.00 0.00 0.00 96 1014.3
20260510060233 21 151 0.0 0.0 0.00 0.00 0.00 96 1014.6
20260510055729 21 151 0.0 0.0 0.00 0.00 0.00 96 1014.5
20260510055227 21 151 0.0 0.0 0.00 0.00 0.00 96 1014.6
20260510054721 21 151 0.0 0.0 0.00 0.00 0.00 96 1014.6
20260510054218 21 151 0.0 0.0 0.00 0.00 0.00 96 1014.9
20260510053717 21 151 0.0 0.0 0.00 0.00 0.00 96 1014.6
20260510053214 21 151 0.0 0.0 0.00 0.00 0.00 96 1015.0
20260510052709 21 151 0.0 0.0 0.00 0.00 0.00 96 1014.9
20260510052206 21 151 0.0 0.0 0.00 0.00 0.00 96 1015.0
20260510051702 21 151 0.0 0.0 0.00 0.00 0.00 96 1015.1
20260510051159 21 151 0.0 0.0 0.00 0.00 0.00 96 1015.3
20260510050656 21 151 0.0 0.0 0.00 0.00 0.00 96 1015.2
20260510050153 21 151 0.0 0.0 0.00 0.00 0.00 96 1015.3
20260510045649 21 151 0.0 0.0 0.00 0.00 0.00 96 1015.1
20260510045147 21 151 0.0 0.0 0.00 0.00 0.00 96 1015.2
20260510044642 21 151 0.0 0.0 0.00 0.00 0.00 96 1015.3
20260510044140 21 151 0.0 0.0 0.00 0.00 0.00 96 1015.2
20260510043636 21 151 0.0 0.0 0.00 0.00 0.00 96 1015.3
20260510043132 21 151 0.0 0.0 0.00 0.00 0.00 96 1015.1
20260510042630 21 151 0.0 0.0 0.00 0.00 0.00 96 1015.2
20260510042126 21 151 0.0 0.0 0.00 0.00 0.00 96 1015.2
20260510041623 21 151 0.0 0.0 0.00 0.00 0.00 96 1015.3
20260510041120 21 151 0.0 0.0 0.00 0.00 0.00 96 1015.2
20260510040618 21 151 0.0 0.0 0.00 0.00 0.00 96 1015.0
20260510040114 21 151 0.0 0.0 0.00 0.00 0.00 96 1015.1
20260510035609 21 151 0.0 0.0 0.00 0.56 0.56 96 1014.9
20260510035104 21 151 0.0 0.0 0.00 0.56 0.56 96 1015.1
20260510034602 21 151 0.0 0.0 0.00 0.56 0.56 96 1015.0
20260510034059 21 131 1.6 1.6 0.00 0.56 0.56 96 1015.4
20260510033555 21 57 0.0 0.0 0.00 0.56 0.56 96 1015.5
20260510033053 21 56 0.0 0.0 0.00 0.56 0.56 96 1015.3
20260510032549 21 54 0.0 0.0 0.00 0.56 0.56 95 1015.5
20260510032044 21 54 0.0 0.0 0.00 0.56 0.56 95 1015.0
20260510031539 21 59 0.0 0.0 0.00 0.56 0.56 95 1015.2
20260510031035 21 69 1.6 1.6 0.00 0.56 0.56 95 1015.2
20260510030531 21 73 1.6 1.6 0.00 0.56 0.56 95 1014.7
20260510030029 21 349 1.6 1.6 0.00 0.56 0.56 95 1014.9
20260510025525 21 110 0.0 0.0 0.00 0.56 0.56 95 1014.8
20260510025023 21 125 0.0 0.0 0.00 0.56 0.56 95 1015.0
20260510024520 21 124 0.0 0.0 0.00 0.56 0.56 95 1014.7
20260510024015 21 126 0.0 0.0 0.00 0.56 0.56 95 1014.7
20260510023511 21 127 0.0 0.0 0.00 0.56 0.56 95 1014.6
20260510023009 21 126 0.0 0.0 0.00 0.56 0.56 95 1014.5
20260510022508 21 61 1.6 1.6 0.00 0.56 0.56 95 1014.4
20260510022008 21 233 0.0 0.0 0.00 0.56 0.56 95 1014.3
20260510021505 21 233 0.0 0.0 0.00 0.56 0.56 95 1014.2
20260510021002 21 232 0.0 0.0 0.00 0.56 0.56 95 1014.4
20260510020456 21 228 1.6 1.6 0.00 0.56 0.56 95 1014.4
20260510015952 21 218 1.6 1.6 0.00 0.56 0.56 95 1014.6
20260510015448 21 283 3.2 3.2 0.00 0.56 0.56 95 1014.3
20260510014944 21 228 3.2 3.2 0.00 0.56 0.56 95 1014.4
20260510014442 21 206 1.6 1.6 0.00 0.56 0.56 95 1014.2
20260510013938 21 215 0.0 0.0 0.00 0.56 0.56 94 1014.2
20260510013432 21 215 0.0 0.0 0.00 0.56 0.56 94 1013.6
20260510012928 21 215 0.0 0.0 0.00 0.56 0.56 94 1014.1
20260510012423 21 215 0.0 0.0 0.00 0.56 0.56 94 1013.8
20260510011918 21 215 0.0 0.0 0.00 0.56 0.56 94 1014.0
20260510011414 21 215 1.6 1.6 0.00 0.56 0.56 94 1014.1
20260510010910 21 171 1.6 1.6 0.00 0.56 0.56 94 1013.9
20260510010408 21 165 0.0 0.0 0.00 0.56 0.56 94 1013.5
20260510005904 21 146 1.6 3.2 0.00 0.56 0.56 94 1013.5
20260510005400 21 163 0.0 0.0 0.00 0.56 0.56 94 1013.4
20260510004858 21 163 0.0 0.0 0.00 0.56 0.56 94 1013.5
20260510004355 21 163 1.6 1.6 0.00 0.56 0.56 94 1013.5
20260510003853 21 155 3.2 3.2 0.00 0.56 0.56 93 1013.9
20260510003350 21 185 0.0 0.0 0.13 0.56 0.56 93 1013.7
20260510002848 21 184 1.6 1.6 0.13 0.56 0.56 93 1014.0
20260510002346 22 173 1.6 1.6 0.00 0.53 0.53 93 1013.7
20260510001842 22 225 1.6 1.6 0.00 0.53 0.53 93 1014.2
20260510001341 22 235 0.0 0.0 0.00 0.53 0.53 93 1014.1
20260510000836 22 235 1.6 1.6 0.00 0.53 0.53 93 1014.1
20260510000334 22 203 0.0 1.6 0.00 0.53 0.53 93 1014.0
20260509235830 22 202 0.0 0.0 0.00 0.53 0.53 92 1013.9
20260509235327 22 202 0.0 0.0 0.00 0.53 0.53 92 1013.9
20260509234823 22 359 0.0 0.0 0.00 0.53 0.53 92 1014.0
20260509234320 22 31 0.0 0.0 0.00 0.53 0.53 92 1013.8
20260509233818 22 32 0.0 0.0 0.00 0.53 0.53 92 1013.8
20260509233315 22 33 0.0 1.6 0.00 0.53 0.53 91 1013.7
20260509232811 22 34 0.0 0.0 0.00 0.53 0.53 91 1013.8
20260509232309 22 108 1.6 1.6 0.00 0.53 0.53 90 1013.7
20260509231804 22 124 0.0 0.0 0.00 0.53 0.53 90 1013.7
20260509231301 22 101 0.0 0.0 0.00 0.53 0.53 90 1013.8
20260509230759 22 102 0.0 0.0 0.00 0.53 0.53 90 1013.7
20260509230257 22 125 3.2 3.2 0.00 0.53 0.53 91 1013.8
20260509225751 22 101 0.0 0.0 0.00 0.53 0.53 91 1013.8
20260509225248 22 124 4.8 3.2 0.00 0.53 0.53 92 1013.7
20260509224743 21 93 1.6 1.6 0.00 0.53 0.53 92 1013.8
20260509224241 21 80 3.2 3.2 0.00 0.53 0.53 92 1013.8
20260509223738 21 98 3.2 3.2 0.00 0.53 0.53 93 1013.7
20260509223235 21 77 1.6 1.6 0.00 0.53 0.53 93 1013.7
20260509222731 22 83 1.6 1.6 0.00 0.53 0.53 93 1013.6
20260509222226 22 93 1.6 1.6 0.00 0.53 0.53 94 1013.4
20260509221722 22 100 0.0 0.0 0.00 0.53 0.53 93 1013.5
20260509221219 22 113 0.0 0.0 0.00 0.53 0.53 94 1013.5
20260509220715 22 123 1.6 1.6 0.00 0.53 0.53 94 1013.4
20260509220212 22 152 0.0 1.6 0.00 0.53 0.53 94 1013.5
20260509215707 22 152 1.6 3.2 0.00 0.53 0.53 94 1013.7
20260509215204 22 145 1.6 1.6 0.00 0.53 0.53 94 1013.6
20260509214701 22 205 1.6 3.2 0.00 0.53 0.53 94 1013.5
20260509214158 22 87 0.0 0.0 0.00 0.53 0.53 94 1013.8
20260509213655 22 353 4.8 4.8 0.00 0.53 0.53 94 1013.6
20260509213150 22 37 1.6 1.6 0.00 0.53 0.53 94 1013.3
20260509212648 22 42 3.2 3.2 0.00 0.53 0.53 94 1013.6
20260509212145 22 79 3.2 3.2 0.00 0.53 0.53 94 1013.6
20260509211641 22 14 1.6 3.2 0.00 0.53 0.53 94 1013.8
20260509211138 22 8 4.8 4.8 0.18 0.53 0.53 94 1013.7
20260509210635 22 52 4.8 4.8 0.18 0.53 0.53 93 1014.0
20260509210132 22 84 0.0 1.6 0.13 0.51 0.51 94 1014.1
20260509205627 22 64 1.6 1.6 0.13 0.51 0.51 93 1013.9
20260509205121 22 29 1.6 3.2 0.00 0.48 0.48 93 1014.0
20260509204618 22 358 1.6 1.6 0.00 0.48 0.48 93 1014.1
20260509204114 22 3 3.2 4.8 0.00 0.48 0.48 93 1013.9
20260509203610 22 323 8.0 11.3 0.18 0.48 0.48 93 1013.8
20260509203108 22 335 4.8 4.8 0.18 0.48 0.48 93 1013.6
20260509202603 22 29 1.6 3.2 0.13 0.46 0.46 93 1013.7
20260509202058 22 346 4.8 4.8 0.13 0.46 0.46 92 1013.6
20260509201553 22 304 4.8 4.8 0.00 0.43 0.43 92 1013.5
20260509201052 22 51 4.8 8.0 0.18 0.43 0.43 92 1013.5
20260509200550 22 323 8.0 11.3 0.61 0.43 0.43 91 1013.8
20260509200048 22 271 6.4 9.7 0.61 0.41 0.41 91 1013.7
20260509195543 22 10 8.0 12.9 0.30 0.36 0.36 90 1013.6
20260509195037 23 319 8.0 11.3 0.30 0.30 0.30 90 1013.7
20260509194532 23 80 3.2 3.2 0.30 0.28 0.28 90 1013.5
20260509194031 23 293 6.4 9.7 0.48 0.25 0.25 89 1013.6
20260509193530 23 193 1.6 1.6 0.61 0.23 0.23 89 1013.4
20260509193027 23 167 4.8 4.8 0.43 0.18 0.18 88 1013.3
20260509192524 23 209 4.8 4.8 0.13 0.13 0.13 88 1013.5
20260509192019 23 179 8.0 8.0 0.00 0.10 0.10 87 1013.4
20260509191514 23 142 6.4 4.8 0.00 0.10 0.10 86 1013.5
20260509191010 23 157 6.4 9.7 0.00 0.10 0.10 85 1013.3
20260509190507 23 173 8.0 8.0 0.00 0.10 0.10 84 1013.2
20260509190006 24 191 4.8 4.8 0.00 0.10 0.10 83 1013.1
20260509185502 24 159 4.8 4.8 0.00 0.10 0.10 84 1013.3
20260509184958 24 156 4.8 4.8 0.00 0.10 0.10 84 1013.4
20260509184457 24 168 9.7 11.3 0.00 0.10 0.10 83 1013.4
20260509183952 24 188 8.0 9.7 0.00 0.10 0.10 82 1013.4
20260509183447 24 86 3.2 4.8 0.00 0.10 0.10 84 1013.6
20260509182944 24 121 3.2 4.8 0.00 0.10 0.10 84 1013.6
20260509182440 23 96 8.0 11.3 0.00 0.10 0.10 84 1013.6
20260509181937 24 133 8.0 9.7 0.00 0.10 0.10 84 1013.6
20260509181435 23 106 6.4 11.3 0.00 0.10 0.10 84 1013.5
20260509180933 24 97 9.7 11.3 0.00 0.10 0.10 83 1013.6
20260509180428 24 94 8.0 9.7 0.00 0.10 0.10 83 1013.5
20260509175925 24 92 8.0 8.0 0.00 0.10 0.10 82 1013.7
20260509175421 24 121 8.0 9.7 0.00 0.10 0.10 83 1013.8
20260509174917 24 106 6.4 8.0 0.00 0.10 0.10 82 1013.9
20260509174414 24 118 8.0 8.0 0.00 0.10 0.10 82 1013.7
20260509173909 24 112 6.4 9.7 0.00 0.10 0.10 82 1014.0
20260509173404 24 130 9.7 9.7 0.00 0.10 0.10 81 1013.9
20260509172900 24 105 8.0 9.7 0.00 0.10 0.10 82 1013.7
20260509172357 23 100 6.4 8.0 0.00 0.10 0.10 82 1013.8
20260509171853 24 105 6.4 8.0 0.00 0.10 0.10 82 1013.8
20260509171349 24 108 6.4 8.0 0.00 0.10 0.10 81 1014.0
20260509170846 25 107 6.4 8.0 0.00 0.10 0.10 79 1014.3
20260509170341 25 101 6.4 8.0 0.00 0.10 0.10 78 1014.1
20260509165836 25 132 6.4 8.0 0.00 0.10 0.10 79 1014.0
20260509165331 25 120 4.8 8.0 0.00 0.10 0.10 79 1014.1
20260509164827 25 82 4.8 8.0 0.00 0.10 0.10 80 1014.0
20260509164324 25 108 8.0 9.7 0.00 0.10 0.10 77 1014.2
20260509163820 25 83 3.2 3.2 0.00 0.10 0.10 77 1014.5
20260509163316 25 82 6.4 8.0 0.00 0.10 0.10 76 1014.3
20260509162816 25 101 1.6 1.6 0.00 0.10 0.10 75 1014.4
20260509162309 26 89 3.2 4.8 0.00 0.10 0.10 73 1014.3
20260509161805 26 122 1.6 1.6 0.00 0.10 0.10 74 1014.5
20260509161301 25 96 0.0 0.0 0.00 0.10 0.10 76 1014.4
20260509160757 25 135 0.0 1.6 0.00 0.10 0.10 76 1014.1
20260509160253 25 94 0.0 0.0 0.00 0.10 0.10 76 1014.0
20260509155748 25 90 4.8 8.0 0.00 0.10 0.10 76 1013.9
20260509155245 25 99 0.0 1.6 0.00 0.10 0.10 75 1013.8
20260509154741 26 98 3.2 3.2 0.00 0.10 0.10 73 1014.1
20260509154239 26 154 1.6 1.6 0.00 0.10 0.10 73 1014.2
20260509153736 26 344 1.6 3.2 0.00 0.10 0.10 73 1014.3
20260509153231 25 109 1.6 1.6 0.00 0.10 0.10 73 1014.4
20260509152728 25 115 1.6 1.6 0.00 0.10 0.10 74 1014.5
20260509152224 24 73 0.0 0.0 0.00 0.10 0.10 76 1014.5
20260509151721 24 333 1.6 3.2 0.00 0.10 0.10 76 1014.6
20260509151218 24 145 1.6 1.6 0.00 0.10 0.10 78 1014.4
20260509150716 23 15 3.2 3.2 0.00 0.10 0.10 79 1014.9
20260509150214 23 26 3.2 4.8 0.00 0.10 0.10 79 1015.1
20260509145710 23 9 3.2 3.2 0.00 0.10 0.10 79 1015.0
20260509145206 23 66 3.2 3.2 0.00 0.10 0.10 79 1015.2
20260509144702 23 13 4.8 4.8 0.00 0.10 0.10 79 1015.3
20260509144200 24 316 3.2 4.8 0.00 0.10 0.10 79 1014.9
20260509143657 24 7 3.2 3.2 0.00 0.10 0.10 78 1014.8
20260509143154 25 138 1.6 1.6 0.00 0.10 0.10 78 1014.6
20260509142649 25 172 1.6 3.2 0.00 0.10 0.10 77 1014.8
20260509142146 25 6 1.6 1.6 0.00 0.10 0.10 75 1014.7
20260509141642 25 53 1.6 1.6 0.00 0.10 0.10 76 1014.6
20260509141138 24 276 3.2 4.8 0.00 0.10 0.10 77 1015.0
20260509140635 24 305 4.8 8.0 0.00 0.10 0.10 77 1014.8
20260509140133 24 61 1.6 1.6 0.00 0.10 0.10 79 1014.5
20260509135630 23 84 1.6 1.6 0.00 0.10 0.10 79 1014.5
20260509135129 23 288 4.8 4.8 0.00 0.10 0.10 80 1014.7
20260509134625 23 275 0.0 0.0 0.00 0.10 0.10 80 1014.6
20260509134122 23 292 1.6 1.6 0.00 0.10 0.10 80 1014.5
20260509133620 23 25 1.6 1.6 0.00 0.10 0.10 80 1014.5
20260509133117 23 29 0.0 0.0 0.00 0.10 0.10 81 1014.0
20260509132615 23 328 3.2 3.2 0.00 0.10 0.10 82 1014.1
20260509132113 23 85 0.0 0.0 0.00 0.10 0.10 83 1014.2
20260509131608 23 19 3.2 3.2 0.00 0.10 0.10 84 1013.9
20260509131106 22 334 0.0 0.0 0.00 0.10 0.10 84 1014.0
20260509130601 22 309 1.6 3.2 0.00 0.10 0.10 84 1014.2
20260509130058 23 326 6.4 9.7 0.00 0.10 0.10 84 1014.2
20260509125555 23 317 1.6 1.6 0.00 0.10 0.10 84 1014.1
20260509125052 23 15 1.6 1.6 0.00 0.10 0.10 84 1013.9
20260509124548 23 60 1.6 1.6 0.00 0.10 0.10 84 1013.8
20260509124045 22 55 1.6 1.6 0.00 0.10 0.10 86 1013.8
20260509123543 22 55 0.0 0.0 0.00 0.10 0.10 87 1013.7
20260509123039 22 40 1.6 1.6 0.00 0.10 0.10 88 1013.9
20260509122536 22 4 1.6 1.6 0.00 0.10 0.10 89 1013.7
20260509122033 21 16 1.6 3.2 0.00 0.10 0.10 90 1013.9
20260509121529 21 51 0.0 0.0 0.00 0.10 0.10 90 1013.9
20260509121027 21 56 1.6 1.6 0.00 0.10 0.10 91 1013.9
20260509120525 21 340 3.2 3.2 0.00 0.10 0.10 91 1013.7
20260509120023 21 351 3.2 3.2 0.00 0.10 0.10 91 1013.8
20260509115520 21 14 1.6 1.6 0.00 0.10 0.10 91 1013.6
20260509115018 21 57 1.6 1.6 0.00 0.10 0.10 91 1013.6
20260509114515 21 57 0.0 0.0 0.00 0.10 0.10 91 1013.6
20260509114014 21 333 4.8 4.8 0.00 0.10 0.10 91 1013.5
20260509113512 20 12 3.2 3.2 0.00 0.10 0.10 91 1013.7
20260509113010 20 43 6.4 8.0 0.00 0.10 0.10 91 1013.6
20260509112506 20 321 1.6 3.2 0.00 0.10 0.10 91 1013.6
20260509112002 20 316 4.8 3.2 0.00 0.10 0.10 91 1013.3
20260509111500 20 304 3.2 3.2 0.00 0.10 0.10 91 1013.2
20260509110957 20 324 1.6 1.6 0.00 0.10 0.10 90 1013.0
20260509110453 20 344 1.6 1.6 0.00 0.10 0.10 90 1013.0
20260509105951 20 336 1.6 1.6 0.00 0.10 0.10 90 1013.1
20260509105449 20 315 3.2 3.2 0.00 0.10 0.10 90 1013.0
20260509104946 20 301 1.6 1.6 0.00 0.10 0.10 90 1012.6
20260509104443 20 308 4.8 3.2 0.00 0.10 0.10 89 1012.6
20260509103940 21 304 6.4 4.8 0.00 0.10 0.10 89 1012.7
20260509103438 21 277 4.8 4.8 0.00 0.10 0.10 88 1012.6
20260509102936 21 296 3.2 3.2 0.00 0.10 0.10 88 1012.5
20260509102433 21 209 1.6 1.6 0.00 0.10 0.10 87 1012.6
20260509101929 21 321 4.8 8.0 0.00 0.10 0.10 86 1012.6
20260509101425 21 303 3.2 3.2 0.00 0.10 0.10 87 1012.2
20260509100923 21 183 1.6 1.6 0.00 0.10 0.10 87 1011.8
20260509100420 21 190 6.4 9.7 0.00 0.10 0.10 87 1011.5
20260509095916 21 185 8.0 8.0 0.00 0.10 0.10 87 1011.7
20260509095414 21 172 8.0 11.3 0.00 0.10 0.10 87 1011.9
20260509094911 21 85 8.0 9.7 0.00 0.10 0.10 87 1011.7
20260509094407 21 206 6.4 8.0 0.00 0.10 0.10 87 1011.6
20260509093905 21 180 11.3 16.1 0.00 0.10 0.10 87 1011.5
20260509093402 21 190 8.0 11.3 0.00 0.10 0.10 86 1011.2
20260509092900 21 186 11.3 12.9 0.00 0.10 0.10 86 1011.5
20260509092357 21 188 11.3 12.9 0.00 0.10 0.10 86 1011.6
20260509091856 21 152 3.2 4.8 0.00 0.10 0.10 87 1011.8
20260509091352 21 215 11.3 14.5 0.00 0.10 0.10 87 1011.5
20260509090850 21 160 17.7 24.1 0.00 0.10 0.10 87 1011.2
20260509090347 21 197 17.7 20.9 0.00 0.10 0.10 89 1011.7
20260509085844 20 183 8.0 11.3 0.00 0.10 0.10 89 1012.1
20260509085341 20 181 3.2 3.2 0.00 0.10 0.10 89 1012.4
20260509084838 20 193 0.0 0.0 0.00 0.10 0.10 89 1012.6
20260509084335 21 231 1.6 1.6 0.00 0.10 0.10 88 1012.9
20260509083833 21 296 3.2 3.2 0.00 0.10 0.10 87 1013.0